Time,TemperatureF,DewpointF,PressureIn,WindDirection,WindDirectionDegrees,WindSpeedMPH,WindSpeedGustMPH,Humidity,HourlyPrecipIn,Conditions,Clouds,dailyrainin,SolarRadiationWatts/m^2,SoftwareType,DateUTC
2017-05-30 00:03:00,69.6,60.6,29.96,South,187,1.5,0.0,73,0.00,,FEW070,0.00,0.00,VWS V15.00,2017-05-30 04:03:00,
2017-05-30 00:08:00,69.5,60.9,29.96,WSW,253,6.0,0.0,74,0.00,,FEW070,0.00,0.00,VWS V15.00,2017-05-30 04:08:00,
2017-05-30 00:13:00,69.4,60.8,29.96,SSW,194,1.5,0.0,74,0.00,,FEW070,0.00,0.00,VWS V15.00,2017-05-30 04:13:00,
2017-05-30 00:18:00,69.3,60.7,29.96,SW,229,0.0,0.0,74,0.00,,FEW070,0.00,0.00,VWS V15.00,2017-05-30 04:18:00,
2017-05-30 00:23:00,69.2,60.6,29.96,South,184,1.5,0.0,74,0.00,,FEW070,0.00,0.00,VWS V15.00,2017-05-30 04:23:00,
2017-05-30 00:28:00,69.1,60.5,29.96,South,184,0.0,0.0,74,0.00,,FEW070,0.00,0.00,VWS V15.00,2017-05-30 04:28:00,
2017-05-30 00:33:00,69.0,60.8,29.96,South,171,0.0,0.0,75,0.00,,FEW070,0.00,0.00,VWS V15.00,2017-05-30 04:33:00,
2017-05-30 00:38:00,68.9,60.7,29.96,WSW,249,1.5,0.0,75,0.00,,FEW070,0.00,0.00,VWS V15.00,2017-05-30 04:38:00,
2017-05-30 00:43:00,68.8,60.6,29.96,SSW,208,1.5,0.0,75,0.00,,FEW070,0.00,0.00,VWS V15.00,2017-05-30 04:43:00,
2017-05-30 00:48:00,68.7,60.5,29.96,SSW,204,1.5,0.0,75,0.00,,FEW070,0.00,0.00,VWS V15.00,2017-05-30 04:48:00,
2017-05-30 00:54:00,68.7,60.5,29.97,WSW,252,0.0,0.0,75,0.00,,FEW070,0.00,0.00,VWS V15.00,2017-05-30 04:54:00,
2017-05-30 00:59:00,68.7,60.5,29.97,South,183,0.0,0.0,75,0.00,,FEW070,0.00,0.00,VWS V15.00,2017-05-30 04:59:00,
2017-05-30 01:04:00,68.7,60.5,29.97,SSE,167,0.0,0.0,75,0.00,,FEW070,0.00,0.00,VWS V15.00,2017-05-30 05:04:00,
2017-05-30 01:09:00,68.7,60.5,29.97,SSW,198,1.5,0.0,75,0.00,,FEW070,0.00,0.00,VWS V15.00,2017-05-30 05:09:00,
2017-05-30 01:14:00,68.7,60.5,29.97,SSE,161,3.0,0.0,75,0.00,,FEW070,0.00,0.00,VWS V15.00,2017-05-30 05:14:00,
2017-05-30 01:19:00,68.6,60.7,29.96,SW,232,1.5,0.0,76,0.00,,FEW070,0.00,0.00,VWS V15.00,2017-05-30 05:19:00,
2017-05-30 01:24:00,68.6,60.7,29.96,SW,222,0.0,0.0,76,0.00,,FEW070,0.00,0.00,VWS V15.00,2017-05-30 05:24:00,
2017-05-30 01:29:00,68.5,60.6,29.96,SW,214,1.5,0.0,76,0.00,,FEW070,0.00,0.00,VWS V15.00,2017-05-30 05:29:00,
2017-05-30 01:34:00,68.4,60.9,29.96,SW,228,3.0,0.0,77,0.00,,FEW070,0.00,0.00,VWS V15.00,2017-05-30 05:34:00,
2017-05-30 01:39:00,68.2,60.7,29.96,SSW,196,1.5,0.0,77,0.00,,FEW070,0.00,0.00,VWS V15.00,2017-05-30 05:39:00,
2017-05-30 01:44:00,68.1,60.6,29.96,SW,229,4.5,0.0,77,0.00,,FEW070,0.00,0.00,VWS V15.00,2017-05-30 05:44:00,
2017-05-30 01:49:00,68.0,60.9,29.96,South,180,0.0,0.0,78,0.00,,FEW070,0.00,0.00,VWS V15.00,2017-05-30 05:49:00,
2017-05-30 01:54:00,67.9,60.8,29.96,WSW,238,1.5,0.0,78,0.00,,FEW070,0.00,0.00,VWS V15.00,2017-05-30 05:54:00,
2017-05-30 01:59:00,67.8,61.1,29.96,SW,223,1.5,0.0,79,0.00,,FEW070,0.00,0.00,VWS V15.00,2017-05-30 05:59:00,
2017-05-30 02:04:00,67.7,61.0,29.97,SSE,152,0.0,0.0,79,0.00,,FEW070,0.00,0.00,VWS V15.00,2017-05-30 06:04:00,
2017-05-30 02:10:00,67.5,61.1,29.96,SW,219,0.0,0.0,80,0.00,,FEW070,0.00,0.00,VWS V15.00,2017-05-30 06:10:00,
2017-05-30 02:15:00,67.4,61.0,29.97,SW,236,1.5,0.0,80,0.00,,FEW070,0.00,0.00,VWS V15.00,2017-05-30 06:15:00,
2017-05-30 02:20:00,67.3,61.3,29.96,SW,225,4.5,0.0,81,0.00,,FEW070,0.00,0.00,VWS V15.00,2017-05-30 06:20:00,
2017-05-30 02:25:00,67.2,61.2,29.96,SW,230,4.5,0.0,81,0.00,,FEW070,0.00,0.00,VWS V15.00,2017-05-30 06:25:00,
2017-05-30 02:30:00,67.1,61.1,29.97,WSW,244,0.0,0.0,81,0.00,,FEW070,0.00,0.00,VWS V15.00,2017-05-30 06:30:00,
2017-05-30 02:35:00,66.7,61.4,29.97,WSW,244,0.0,0.0,83,0.00,,FEW070,0.00,0.00,VWS V15.00,2017-05-30 06:35:00,
2017-05-30 02:40:00,66.5,61.2,29.97,WSW,244,0.0,0.0,83,0.00,,FEW070,0.00,0.00,VWS V15.00,2017-05-30 06:40:00,
2017-05-30 02:45:00,66.4,61.1,29.97,WSW,244,0.0,0.0,83,0.00,,FEW070,0.00,0.00,VWS V15.00,2017-05-30 06:45:00,
2017-05-30 02:46:00,66.4,61.1,29.97,WSW,244,0.0,0.0,83,0.00,,FEW070,0.00,0.00,VWS V15.00,2017-05-30 06:46:00,
2017-05-30 02:51:00,66.3,61.0,29.97,WSW,244,0.0,0.0,83,0.00,,FEW070,0.00,0.00,VWS V15.00,2017-05-30 06:51:00,
2017-05-30 02:56:00,66.1,61.1,29.97,SSW,204,0.0,0.0,84,0.00,,FEW070,0.00,0.00,VWS V15.00,2017-05-30 06:56:00,
2017-05-30 03:01:00,66.0,61.0,29.97,SSW,204,0.0,0.0,84,0.00,,FEW070,0.00,0.00,VWS V15.00,2017-05-30 07:01:00,
2017-05-30 03:06:00,65.8,61.2,29.97,SSW,204,0.0,0.0,85,0.00,,FEW070,0.00,0.00,VWS V15.00,2017-05-30 07:06:00,
2017-05-30 03:11:00,65.7,61.1,29.97,SSW,204,0.0,0.0,85,0.00,,FEW070,0.00,0.00,VWS V15.00,2017-05-30 07:11:00,
2017-05-30 03:16:00,65.4,60.8,29.97,SSW,204,0.0,0.0,85,0.00,,FEW070,0.00,0.00,VWS V15.00,2017-05-30 07:16:00,
2017-05-30 03:21:00,65.2,60.9,29.97,SSW,204,0.0,0.0,86,0.00,,FEW070,0.00,0.00,VWS V15.00,2017-05-30 07:21:00,
2017-05-30 03:26:00,64.9,60.6,29.97,SSW,204,0.0,0.0,86,0.00,,FEW070,0.00,0.00,VWS V15.00,2017-05-30 07:26:00,
2017-05-30 03:31:00,64.7,60.4,29.97,SSW,204,0.0,0.0,86,0.00,,FEW070,0.00,0.00,VWS V15.00,2017-05-30 07:31:00,
2017-05-30 03:36:00,64.5,60.5,29.97,SSW,204,0.0,0.0,87,0.00,,FEW070,0.00,0.00,VWS V15.00,2017-05-30 07:36:00,
2017-05-30 03:41:00,64.4,60.8,29.98,SSW,204,0.0,0.0,88,0.00,,FEW070,0.00,0.00,VWS V15.00,2017-05-30 07:41:00,
2017-05-30 03:47:00,64.3,60.7,29.98,SSW,204,0.0,0.0,88,0.00,,FEW070,0.00,0.00,VWS V15.00,2017-05-30 07:47:00,
2017-05-30 03:52:00,64.2,60.6,29.98,SSW,204,0.0,0.0,88,0.00,,FEW070,0.00,0.00,VWS V15.00,2017-05-30 07:52:00,
2017-05-30 03:57:00,64.1,60.8,29.98,SSW,204,0.0,0.0,89,0.00,,FEW070,0.00,0.00,VWS V15.00,2017-05-30 07:57:00,
2017-05-30 04:02:00,64.1,60.8,29.98,SSW,204,0.0,0.0,89,0.00,,FEW070,0.00,0.00,VWS V15.00,2017-05-30 08:02:00,
2017-05-30 04:07:00,64.0,60.7,29.97,SSW,204,1.5,0.0,89,0.00,,FEW070,0.00,0.00,VWS V15.00,2017-05-30 08:07:00,
2017-05-30 04:12:00,63.9,60.6,29.97,SSW,204,0.0,0.0,89,0.00,,FEW070,0.00,0.00,VWS V15.00,2017-05-30 08:12:00,
2017-05-30 04:17:00,63.8,60.8,29.97,SSW,204,0.0,0.0,90,0.00,,FEW070,0.00,0.00,VWS V15.00,2017-05-30 08:17:00,
2017-05-30 04:22:00,63.8,60.8,29.97,SSW,204,0.0,0.0,90,0.00,,FEW070,0.00,0.00,VWS V15.00,2017-05-30 08:22:00,
2017-05-30 04:27:00,63.6,60.6,29.98,SSW,204,0.0,0.0,90,0.00,,FEW070,0.00,0.00,VWS V15.00,2017-05-30 08:27:00,
2017-05-30 04:32:00,63.4,60.4,29.98,SSW,204,0.0,0.0,90,0.00,,FEW070,0.00,0.00,VWS V15.00,2017-05-30 08:32:00,
2017-05-30 04:37:00,63.2,60.2,29.98,SSW,204,0.0,0.0,90,0.00,,FEW070,0.00,0.00,VWS V15.00,2017-05-30 08:37:00,
2017-05-30 04:42:00,63.1,60.1,29.98,SSW,204,0.0,0.0,90,0.00,,FEW070,0.00,0.00,VWS V15.00,2017-05-30 08:42:00,
2017-05-30 04:46:00,63.0,60.0,29.98,SSW,204,0.0,0.0,90,0.00,,FEW070,0.00,0.00,VWS V15.00,2017-05-30 08:46:00,
2017-05-30 04:49:00,62.9,59.9,29.98,SSW,204,0.0,0.0,90,0.00,,FEW070,0.00,0.00,VWS V15.00,2017-05-30 08:49:00,
2017-05-30 04:54:00,62.7,60.0,29.99,SSW,204,0.0,0.0,91,0.00,,FEW070,0.00,0.00,VWS V15.00,2017-05-30 08:54:00,
2017-05-30 04:59:00,62.5,59.5,29.99,SSW,204,0.0,0.0,90,0.00,,FEW070,0.00,0.00,VWS V15.00,2017-05-30 08:59:00,
2017-05-30 05:04:00,62.2,59.5,29.99,SSW,204,0.0,0.0,91,0.00,,FEW070,0.00,0.00,VWS V15.00,2017-05-30 09:04:00,
2017-05-30 05:09:00,62.0,59.3,29.99,SSW,204,0.0,0.0,91,0.00,,FEW070,0.00,0.00,VWS V15.00,2017-05-30 09:09:00,
2017-05-30 05:14:00,61.9,59.5,29.99,SSW,204,0.0,0.0,92,0.00,,FEW070,0.00,0.00,VWS V15.00,2017-05-30 09:14:00,
2017-05-30 05:19:00,61.7,59.4,29.99,SSW,204,0.0,0.0,92,0.00,,FEW070,0.00,0.00,VWS V15.00,2017-05-30 09:19:00,
2017-05-30 05:25:00,61.6,59.3,30.00,SSW,204,0.0,0.0,92,0.00,,FEW070,0.00,0.00,VWS V15.00,2017-05-30 09:25:00,
2017-05-30 05:30:00,61.5,59.2,30.00,SSW,204,0.0,0.0,92,0.00,,FEW070,0.00,0.00,VWS V15.00,2017-05-30 09:30:00,
2017-05-30 05:35:00,61.3,59.0,30.00,SSW,204,0.0,0.0,92,0.00,,FEW070,0.00,0.00,VWS V15.00,2017-05-30 09:35:00,
2017-05-30 05:40:00,61.1,59.1,30.00,SSW,204,0.0,0.0,93,0.00,,FEW070,0.00,0.00,VWS V15.00,2017-05-30 09:40:00,
2017-05-30 05:45:00,61.0,59.0,30.00,SSW,204,0.0,0.0,93,0.00,,FEW070,0.00,0.00,VWS V15.00,2017-05-30 09:45:00,